Year,Month,Day,Hour,Minute,Value (Times are PST for temperature in C)
2014,06,26,00,00,17.10
2014,06,26,00,01,17.00
2014,06,26,00,02,17.00
2014,06,26,00,03,17.00
2014,06,26,00,04,17.00
2014,06,26,00,05,17.00
2014,06,26,00,06,17.00
2014,06,26,00,07,16.90
2014,06,26,00,08,16.90
2014,06,26,00,09,16.90
2014,06,26,00,10,16.90
2014,06,26,00,11,16.90
2014,06,26,00,12,16.80
2014,06,26,00,13,16.80
2014,06,26,00,14,16.80
2014,06,26,00,15,16.80
2014,06,26,00,16,16.80
2014,06,26,00,17,16.70
2014,06,26,00,18,16.70
2014,06,26,00,19,16.70
2014,06,26,00,20,16.70
2014,06,26,00,21,16.70
2014,06,26,00,22,16.60
2014,06,26,00,23,16.60
2014,06,26,00,24,16.60
2014,06,26,00,25,16.60
2014,06,26,00,26,16.60
2014,06,26,00,27,16.50
2014,06,26,00,28,16.50
2014,06,26,00,29,16.40
2014,06,26,00,30,16.40
2014,06,26,00,31,16.40
2014,06,26,00,32,16.40
2014,06,26,00,33,16.40
2014,06,26,00,34,16.40
2014,06,26,00,35,16.40
2014,06,26,00,36,16.40
2014,06,26,00,37,16.40
2014,06,26,00,38,16.40
2014,06,26,00,39,16.40
2014,06,26,00,40,16.40
2014,06,26,00,41,16.30
2014,06,26,00,42,16.30
2014,06,26,00,43,16.30
2014,06,26,00,44,16.30
2014,06,26,00,45,16.30
2014,06,26,00,46,16.30
2014,06,26,00,47,16.30
2014,06,26,00,48,16.30
2014,06,26,00,49,16.30
2014,06,26,00,50,16.30
2014,06,26,00,51,16.30
2014,06,26,00,52,16.30
2014,06,26,00,53,16.30
2014,06,26,00,54,16.30
2014,06,26,00,55,16.40
2014,06,26,00,56,16.40
2014,06,26,00,57,16.40
2014,06,26,00,58,16.40
2014,06,26,00,59,16.40
2014,06,26,01,00,16.40
2014,06,26,01,01,16.40
2014,06,26,01,02,16.40
2014,06,26,01,03,16.40
2014,06,26,01,04,16.40
2014,06,26,01,05,16.40
2014,06,26,01,06,16.40
2014,06,26,01,07,16.50
2014,06,26,01,08,16.50
2014,06,26,01,09,16.50
2014,06,26,01,10,16.50
2014,06,26,01,11,16.50
2014,06,26,01,12,16.50
2014,06,26,01,13,16.50
2014,06,26,01,14,16.50
2014,06,26,01,15,16.50
2014,06,26,01,16,16.50
2014,06,26,01,17,16.50
2014,06,26,01,18,16.60
2014,06,26,01,19,16.60
2014,06,26,01,20,16.60
2014,06,26,01,21,16.70
2014,06,26,01,22,16.70
2014,06,26,01,23,16.70
2014,06,26,01,24,16.70
2014,06,26,01,25,16.70
2014,06,26,01,26,16.80
2014,06,26,01,27,16.80
2014,06,26,01,28,16.80
2014,06,26,01,29,16.80
2014,06,26,01,30,16.80
2014,06,26,01,31,16.80
2014,06,26,01,32,16.80
2014,06,26,01,33,16.80
2014,06,26,01,34,16.80
2014,06,26,01,35,16.80
2014,06,26,01,36,16.70
2014,06,26,01,37,16.70
2014,06,26,01,38,16.70
2014,06,26,01,39,16.70
2014,06,26,01,40,16.70
2014,06,26,01,41,16.70
2014,06,26,01,42,16.70
2014,06,26,01,43,16.70
2014,06,26,01,44,16.70
2014,06,26,01,45,16.70
2014,06,26,01,46,16.70
2014,06,26,01,47,16.70
2014,06,26,01,48,16.70
2014,06,26,01,49,16.70
2014,06,26,01,50,16.70
2014,06,26,01,51,16.70
2014,06,26,01,52,16.60
2014,06,26,01,53,16.60
2014,06,26,01,54,16.60
2014,06,26,01,55,16.60
2014,06,26,01,56,16.60
2014,06,26,01,57,16.60
2014,06,26,01,58,16.50
2014,06,26,01,59,16.50
2014,06,26,02,00,16.50
2014,06,26,02,01,16.50
2014,06,26,02,02,16.40
2014,06,26,02,03,16.40
2014,06,26,02,04,16.40
2014,06,26,02,05,16.40
2014,06,26,02,06,16.40
2014,06,26,02,07,16.40
2014,06,26,02,08,16.40
2014,06,26,02,09,16.40
2014,06,26,02,10,16.40
2014,06,26,02,11,16.40
2014,06,26,02,12,16.40
2014,06,26,02,13,16.40
2014,06,26,02,14,16.40
2014,06,26,02,15,16.40
2014,06,26,02,16,16.30
2014,06,26,02,17,16.30
2014,06,26,02,18,16.30
2014,06,26,02,19,16.30
2014,06,26,02,20,16.30
2014,06,26,02,21,16.30
2014,06,26,02,22,16.30
2014,06,26,02,23,16.20
2014,06,26,02,24,16.20
2014,06,26,02,25,16.20
2014,06,26,02,26,16.20
2014,06,26,02,27,16.20
2014,06,26,02,28,16.20
2014,06,26,02,29,16.10
2014,06,26,02,30,16.10
2014,06,26,02,31,16.10
2014,06,26,02,32,16.10
2014,06,26,02,33,16.10
2014,06,26,02,34,16.10
2014,06,26,02,35,16.10
2014,06,26,02,36,16.10
2014,06,26,02,37,16.00
2014,06,26,02,38,16.00
2014,06,26,02,39,16.00
2014,06,26,02,40,16.00
2014,06,26,02,41,15.90
2014,06,26,02,42,15.90
2014,06,26,02,43,15.90
2014,06,26,02,44,15.90
2014,06,26,02,45,15.90
2014,06,26,02,46,15.90
2014,06,26,02,47,15.80
2014,06,26,02,48,15.80
2014,06,26,02,49,15.80
2014,06,26,02,50,15.80
2014,06,26,02,51,15.80
2014,06,26,02,52,15.80
2014,06,26,02,53,15.70
2014,06,26,02,54,15.70
2014,06,26,02,55,15.70
2014,06,26,02,56,15.70
2014,06,26,02,57,15.70
2014,06,26,02,58,15.70
2014,06,26,02,59,15.60
2014,06,26,03,00,15.60
2014,06,26,03,01,15.60
2014,06,26,03,02,15.60
2014,06,26,03,03,15.60
2014,06,26,03,04,15.60
2014,06,26,03,05,15.60
2014,06,26,03,06,15.50
2014,06,26,03,07,15.50
2014,06,26,03,08,15.50
2014,06,26,03,09,15.50
2014,06,26,03,10,15.50
2014,06,26,03,11,15.40
2014,06,26,03,12,15.40
2014,06,26,03,13,15.40
2014,06,26,03,14,15.40
2014,06,26,03,15,15.40
2014,06,26,03,16,15.30
2014,06,26,03,17,15.30
2014,06,26,03,18,15.30
2014,06,26,03,19,15.30
2014,06,26,03,20,15.30
2014,06,26,03,21,15.30
2014,06,26,03,22,15.30
2014,06,26,03,23,15.30
2014,06,26,03,24,15.30
2014,06,26,03,25,15.30
2014,06,26,03,26,15.30
2014,06,26,03,27,15.20
2014,06,26,03,28,15.20
2014,06,26,03,29,15.20
2014,06,26,03,30,15.20
2014,06,26,03,31,15.20
2014,06,26,03,32,15.20
2014,06,26,03,33,15.20
2014,06,26,03,34,15.20
2014,06,26,03,35,15.20
2014,06,26,03,36,15.10
2014,06,26,03,37,15.10
2014,06,26,03,38,15.10
2014,06,26,03,39,15.10
2014,06,26,03,40,15.00
2014,06,26,03,41,15.00
2014,06,26,03,42,15.00
2014,06,26,03,43,14.90
2014,06,26,03,44,14.90
2014,06,26,03,45,14.90
2014,06,26,03,46,14.90
2014,06,26,03,47,14.80
2014,06,26,03,48,14.80
2014,06,26,03,49,14.80
2014,06,26,03,50,14.70
2014,06,26,03,51,14.70
2014,06,26,03,52,14.70
2014,06,26,03,53,14.70
2014,06,26,03,54,14.60
2014,06,26,03,55,14.60
2014,06,26,03,56,14.60
2014,06,26,03,57,14.60
2014,06,26,03,58,14.50
2014,06,26,03,59,14.50
2014,06,26,04,00,14.40
2014,06,26,04,01,14.40
2014,06,26,04,02,14.40
2014,06,26,04,03,14.40
2014,06,26,04,04,14.30
2014,06,26,04,05,14.30
2014,06,26,04,06,14.30
2014,06,26,04,07,14.30
2014,06,26,04,08,14.20
2014,06,26,04,09,14.20
2014,06,26,04,10,14.20
2014,06,26,04,11,14.20
2014,06,26,04,12,14.20
2014,06,26,04,13,14.10
2014,06,26,04,14,14.10
2014,06,26,04,15,14.10
2014,06,26,04,16,14.10
2014,06,26,04,17,14.00
2014,06,26,04,18,14.00
2014,06,26,04,19,14.00
2014,06,26,04,20,13.90
2014,06,26,04,21,13.90
2014,06,26,04,22,13.90
2014,06,26,04,23,13.90
2014,06,26,04,24,13.80
2014,06,26,04,25,13.80
2014,06,26,04,26,13.80
2014,06,26,04,27,13.80
2014,06,26,04,28,13.80
2014,06,26,04,29,13.80
2014,06,26,04,30,13.80
2014,06,26,04,31,13.80
2014,06,26,04,32,13.80
2014,06,26,04,33,13.80
2014,06,26,04,34,13.70
2014,06,26,04,35,13.70
2014,06,26,04,36,13.70
2014,06,26,04,37,13.70
2014,06,26,04,38,13.70
2014,06,26,04,39,13.70
2014,06,26,04,40,13.70
2014,06,26,04,41,13.70
2014,06,26,04,42,13.70
2014,06,26,04,43,13.80
2014,06,26,04,44,13.80
2014,06,26,04,45,13.80
2014,06,26,04,46,13.80
2014,06,26,04,47,13.70
2014,06,26,04,48,13.80
2014,06,26,04,49,13.80
2014,06,26,04,50,13.80
2014,06,26,04,51,13.80
2014,06,26,04,52,13.80
2014,06,26,04,53,13.80
2014,06,26,04,54,13.80
2014,06,26,04,55,13.80
2014,06,26,04,56,13.80
2014,06,26,04,57,13.80
2014,06,26,04,58,13.90
2014,06,26,04,59,13.90
2014,06,26,05,00,13.90
2014,06,26,05,01,13.90
2014,06,26,05,02,14.00
2014,06,26,05,03,14.00
2014,06,26,05,04,14.00
2014,06,26,05,05,14.00
2014,06,26,05,06,14.00
2014,06,26,05,07,14.00
2014,06,26,05,08,14.00
2014,06,26,05,09,14.00
2014,06,26,05,10,14.00
2014,06,26,05,11,14.00
2014,06,26,05,12,14.00
2014,06,26,05,13,14.00
2014,06,26,05,14,14.00
2014,06,26,05,15,14.00
2014,06,26,05,16,14.00
2014,06,26,05,17,14.00
2014,06,26,05,18,14.00
2014,06,26,05,19,14.10
2014,06,26,05,20,14.10
2014,06,26,05,21,14.10
2014,06,26,05,22,14.10
2014,06,26,05,23,14.10
2014,06,26,05,24,14.10
2014,06,26,05,25,14.10
2014,06,26,05,26,14.00
2014,06,26,05,27,14.00
2014,06,26,05,28,14.00
2014,06,26,05,29,14.00
2014,06,26,05,30,14.00
2014,06,26,05,31,14.00
2014,06,26,05,32,14.00
2014,06,26,05,33,14.00
2014,06,26,05,34,14.00
2014,06,26,05,35,14.00
2014,06,26,05,36,14.00
2014,06,26,05,37,14.00
2014,06,26,05,38,14.00
2014,06,26,05,39,13.90
2014,06,26,05,40,13.90
2014,06,26,05,41,13.90
2014,06,26,05,42,13.90
2014,06,26,05,43,13.90
2014,06,26,05,44,13.90
2014,06,26,05,45,13.90
2014,06,26,05,46,13.90
2014,06,26,05,47,13.90
2014,06,26,05,48,13.90
2014,06,26,05,49,13.90
2014,06,26,05,50,13.90
2014,06,26,05,51,13.90
2014,06,26,05,52,13.80
2014,06,26,05,53,13.80
2014,06,26,05,54,13.80
2014,06,26,05,55,13.80
2014,06,26,05,56,13.80
2014,06,26,05,57,13.80
2014,06,26,05,58,13.80
2014,06,26,05,59,13.80
2014,06,26,06,00,13.80
2014,06,26,06,01,13.80
2014,06,26,06,02,13.80
2014,06,26,06,03,13.80
2014,06,26,06,04,13.80
2014,06,26,06,05,13.80
2014,06,26,06,06,13.80
2014,06,26,06,07,13.80
2014,06,26,06,08,13.80
2014,06,26,06,09,13.80
2014,06,26,06,10,13.80
2014,06,26,06,11,13.80
2014,06,26,06,12,13.80
2014,06,26,06,13,13.70
2014,06,26,06,14,13.70
2014,06,26,06,15,13.70
2014,06,26,06,16,13.70
2014,06,26,06,17,13.60
2014,06,26,06,18,13.60
2014,06,26,06,19,13.60
2014,06,26,06,20,13.60
2014,06,26,06,21,13.60
2014,06,26,06,22,13.50
2014,06,26,06,23,13.50
2014,06,26,06,24,13.50
2014,06,26,06,25,13.50
2014,06,26,06,26,13.50
2014,06,26,06,27,13.50
2014,06,26,06,28,13.50
2014,06,26,06,29,13.50
2014,06,26,06,30,13.50
2014,06,26,06,31,13.50
2014,06,26,06,32,13.60
2014,06,26,06,33,13.60
2014,06,26,06,34,13.70
2014,06,26,06,35,13.70
2014,06,26,06,36,13.70
2014,06,26,06,37,13.70
2014,06,26,06,38,13.70
2014,06,26,06,39,13.80
2014,06,26,06,40,13.80
2014,06,26,06,41,13.80
2014,06,26,06,42,13.80
2014,06,26,06,43,13.80
2014,06,26,06,44,13.80
2014,06,26,06,45,13.90
2014,06,26,06,46,14.00
2014,06,26,06,47,14.00
2014,06,26,06,48,14.00
2014,06,26,06,49,14.10
2014,06,26,06,50,14.10
2014,06,26,06,51,14.10
2014,06,26,06,52,14.20
2014,06,26,06,53,14.20
2014,06,26,06,54,14.20
2014,06,26,06,55,14.30
2014,06,26,06,56,14.30
2014,06,26,06,57,14.40
2014,06,26,06,58,14.40
2014,06,26,06,59,14.40
2014,06,26,07,00,14.50
2014,06,26,07,01,14.50
2014,06,26,07,02,14.50
2014,06,26,07,03,14.60
2014,06,26,07,04,14.70
2014,06,26,07,05,14.70
2014,06,26,07,06,14.80
2014,06,26,07,07,14.80
2014,06,26,07,08,14.90
2014,06,26,07,09,14.90
2014,06,26,07,10,15.00
2014,06,26,07,11,15.00
2014,06,26,07,12,15.10
2014,06,26,07,13,15.10
2014,06,26,07,14,15.10
2014,06,26,07,15,15.20
2014,06,26,07,16,15.20
2014,06,26,07,17,15.30
2014,06,26,07,18,15.30
2014,06,26,07,19,15.30
2014,06,26,07,20,15.30
2014,06,26,07,21,15.40
2014,06,26,07,22,15.40
2014,06,26,07,23,15.40
2014,06,26,07,24,15.40
2014,06,26,07,25,15.40
2014,06,26,07,26,15.40
2014,06,26,07,27,15.40
2014,06,26,07,28,15.40
2014,06,26,07,29,15.40
2014,06,26,07,30,15.50
2014,06,26,07,31,15.50
2014,06,26,07,32,15.60
2014,06,26,07,33,15.60
2014,06,26,07,34,15.60
2014,06,26,07,35,15.60
2014,06,26,07,36,15.60
2014,06,26,07,37,15.70
2014,06,26,07,38,15.70
2014,06,26,07,39,15.70
2014,06,26,07,40,15.70
2014,06,26,07,41,15.80
2014,06,26,07,42,15.80
2014,06,26,07,43,15.80
2014,06,26,07,44,15.80
2014,06,26,07,45,15.80
2014,06,26,07,46,15.90
2014,06,26,07,47,15.90
2014,06,26,07,48,15.90
2014,06,26,07,49,16.00
2014,06,26,07,50,16.00
2014,06,26,07,51,16.10
2014,06,26,07,52,16.10
2014,06,26,07,53,16.10
2014,06,26,07,54,16.20
2014,06,26,07,55,16.30
2014,06,26,07,56,16.30
2014,06,26,07,57,16.40
2014,06,26,07,58,16.40
2014,06,26,07,59,16.50
2014,06,26,08,00,16.50
2014,06,26,08,01,16.60
2014,06,26,08,02,16.60
2014,06,26,08,03,16.70
2014,06,26,08,04,16.70
2014,06,26,08,05,16.80
2014,06,26,08,06,16.80
2014,06,26,08,07,16.80
2014,06,26,08,08,16.90
2014,06,26,08,09,16.90
2014,06,26,08,10,16.90
2014,06,26,08,11,17.00
2014,06,26,08,12,17.00
2014,06,26,08,13,17.00
2014,06,26,08,14,17.00
2014,06,26,08,15,17.10
2014,06,26,08,16,17.10
2014,06,26,08,17,17.10
2014,06,26,08,18,17.20
2014,06,26,08,19,17.20
2014,06,26,08,20,17.20
2014,06,26,08,21,17.30
2014,06,26,08,22,17.30
2014,06,26,08,23,17.30
2014,06,26,08,24,17.40
2014,06,26,08,25,17.40
2014,06,26,08,26,17.50
2014,06,26,08,27,17.50
2014,06,26,08,28,17.60
2014,06,26,08,29,17.60
2014,06,26,08,30,17.60
2014,06,26,08,31,17.60
2014,06,26,08,32,17.60
2014,06,26,08,33,17.60
2014,06,26,08,34,17.60
2014,06,26,08,35,17.70
2014,06,26,08,36,17.70
2014,06,26,08,37,17.70
2014,06,26,08,38,17.80
2014,06,26,08,39,17.80
2014,06,26,08,40,17.80
2014,06,26,08,41,17.80
2014,06,26,08,42,17.80
2014,06,26,08,43,17.80
2014,06,26,08,44,17.80
2014,06,26,08,45,17.80
2014,06,26,08,46,17.80
2014,06,26,08,47,17.80
2014,06,26,08,48,17.90
2014,06,26,08,49,17.90
2014,06,26,08,50,17.90
2014,06,26,08,51,17.90
2014,06,26,08,52,18.00
2014,06,26,08,53,18.00
2014,06,26,08,54,18.00
2014,06,26,08,55,18.00
2014,06,26,08,56,18.10
2014,06,26,08,57,18.10
2014,06,26,08,58,18.20
2014,06,26,08,59,18.30
2014,06,26,09,00,18.20
2014,06,26,09,01,18.20
2014,06,26,09,02,18.20
2014,06,26,09,03,18.20
2014,06,26,09,04,18.10
2014,06,26,09,05,18.10
2014,06,26,09,06,18.10
2014,06,26,09,07,18.10
2014,06,26,09,08,18.20
2014,06,26,09,09,18.20
2014,06,26,09,10,18.30
2014,06,26,09,11,18.30
2014,06,26,09,12,18.30
2014,06,26,09,13,18.40
2014,06,26,09,14,18.40
2014,06,26,09,15,18.50
2014,06,26,09,16,18.60
2014,06,26,09,17,18.60
2014,06,26,09,18,18.70
2014,06,26,09,19,18.70
2014,06,26,09,20,18.80
2014,06,26,09,21,18.80
2014,06,26,09,22,18.80
2014,06,26,09,23,18.90
2014,06,26,09,24,19.00
2014,06,26,09,25,19.00
2014,06,26,09,26,19.10
2014,06,26,09,27,19.20
2014,06,26,09,28,19.30
2014,06,26,09,29,19.40
2014,06,26,09,30,19.40
2014,06,26,09,31,19.50
2014,06,26,09,32,19.60
2014,06,26,09,33,19.60
2014,06,26,09,34,19.70
2014,06,26,09,35,19.80
2014,06,26,09,36,19.80
2014,06,26,09,37,19.80
2014,06,26,09,38,19.90
2014,06,26,09,39,19.90
2014,06,26,09,40,19.90
2014,06,26,09,41,20.00
2014,06,26,09,42,20.00
2014,06,26,09,43,20.00
2014,06,26,09,44,20.00
2014,06,26,09,45,20.00
2014,06,26,09,46,20.00
2014,06,26,09,47,20.00
2014,06,26,09,48,20.00
2014,06,26,09,49,20.10
2014,06,26,09,50,20.10
2014,06,26,09,51,20.20
2014,06,26,09,52,20.20
2014,06,26,09,53,20.20
2014,06,26,09,54,20.20
2014,06,26,09,55,20.20
2014,06,26,09,56,20.20
2014,06,26,09,57,20.20
2014,06,26,09,58,20.20
2014,06,26,09,59,20.30
2014,06,26,10,00,20.30
2014,06,26,10,01,20.30
2014,06,26,10,02,20.30
2014,06,26,10,03,20.40
2014,06,26,10,04,20.40
2014,06,26,10,05,20.50
2014,06,26,10,06,20.50
2014,06,26,10,07,20.60
2014,06,26,10,08,20.60
2014,06,26,10,09,20.70
2014,06,26,10,10,20.80
2014,06,26,10,11,20.80
2014,06,26,10,12,20.80
2014,06,26,10,13,20.70
2014,06,26,10,14,20.70
2014,06,26,10,15,20.70
2014,06,26,10,16,20.70
2014,06,26,10,17,20.70
2014,06,26,10,18,20.70
2014,06,26,10,19,20.60
2014,06,26,10,20,20.60
2014,06,26,10,21,20.60
2014,06,26,10,22,20.60
2014,06,26,10,23,20.60
2014,06,26,10,24,20.70
2014,06,26,10,25,20.70
2014,06,26,10,26,20.80
2014,06,26,10,27,20.80
2014,06,26,10,28,20.70
2014,06,26,10,29,20.70
2014,06,26,10,30,20.70
2014,06,26,10,31,20.70
2014,06,26,10,32,20.70
2014,06,26,10,33,20.70
2014,06,26,10,34,20.70
2014,06,26,10,35,20.70
2014,06,26,10,36,20.80
2014,06,26,10,37,20.80
2014,06,26,10,38,20.80
2014,06,26,10,39,20.90
2014,06,26,10,40,20.90
2014,06,26,10,41,21.00
2014,06,26,10,42,21.00
2014,06,26,10,43,21.10
2014,06,26,10,44,21.10
2014,06,26,10,45,21.20
2014,06,26,10,46,21.20
2014,06,26,10,47,21.20
2014,06,26,10,48,21.10
2014,06,26,10,49,21.00
2014,06,26,10,50,20.90
2014,06,26,10,51,20.80
2014,06,26,10,52,20.70
2014,06,26,10,53,20.70
2014,06,26,10,54,20.70
2014,06,26,10,55,20.70
2014,06,26,10,56,20.60
2014,06,26,10,57,20.60
2014,06,26,10,58,20.60
2014,06,26,10,59,20.60
2014,06,26,11,00,20.60
2014,06,26,11,01,20.70
2014,06,26,11,02,20.70
2014,06,26,11,03,20.80
2014,06,26,11,04,20.80
2014,06,26,11,05,20.90
2014,06,26,11,06,21.00
2014,06,26,11,07,21.00
2014,06,26,11,08,21.00
2014,06,26,11,09,21.10
2014,06,26,11,10,21.10
2014,06,26,11,11,21.10
2014,06,26,11,12,21.10
2014,06,26,11,13,21.00
2014,06,26,11,14,21.00
2014,06,26,11,15,20.90
2014,06,26,11,16,20.90
2014,06,26,11,17,20.90
2014,06,26,11,18,20.90
2014,06,26,11,19,20.90
2014,06,26,11,20,20.90
2014,06,26,11,21,21.00
2014,06,26,11,22,21.00
2014,06,26,11,23,21.00
2014,06,26,11,24,21.00
2014,06,26,11,25,21.00
2014,06,26,11,26,20.90
2014,06,26,11,27,20.90
2014,06,26,11,28,20.90
2014,06,26,11,29,20.80
2014,06,26,11,30,20.90
2014,06,26,11,31,21.00
2014,06,26,11,32,21.10
2014,06,26,11,33,21.20
2014,06,26,11,34,21.30
2014,06,26,11,35,21.30
2014,06,26,11,36,21.30
2014,06,26,11,37,21.20
2014,06,26,11,38,21.20
2014,06,26,11,39,21.10
2014,06,26,11,40,21.00
2014,06,26,11,41,20.90
2014,06,26,11,42,20.80
2014,06,26,11,43,20.80
2014,06,26,11,44,20.80
2014,06,26,11,45,20.80
2014,06,26,11,46,20.80
2014,06,26,11,47,20.80
2014,06,26,11,48,20.80
2014,06,26,11,49,20.80
2014,06,26,11,50,20.90
2014,06,26,11,51,21.00
2014,06,26,11,52,21.10
2014,06,26,11,53,21.20
2014,06,26,11,54,21.30
2014,06,26,11,55,21.40
2014,06,26,11,56,21.50
2014,06,26,11,57,21.60
2014,06,26,11,58,21.70
2014,06,26,11,59,21.70
2014,06,26,12,00,21.80
2014,06,26,12,01,21.80
2014,06,26,12,02,21.90
2014,06,26,12,03,21.90
2014,06,26,12,04,21.80
2014,06,26,12,05,21.80
2014,06,26,12,06,21.80
2014,06,26,12,07,21.80
2014,06,26,12,08,21.80
2014,06,26,12,09,21.90
2014,06,26,12,10,22.00
2014,06,26,12,11,22.10
2014,06,26,12,12,22.20
2014,06,26,12,13,22.20
2014,06,26,12,14,22.30
2014,06,26,12,15,22.40
2014,06,26,12,16,22.50
2014,06,26,12,17,22.60
2014,06,26,12,18,22.60
2014,06,26,12,19,22.60
2014,06,26,12,20,22.50
2014,06,26,12,21,22.50
2014,06,26,12,22,22.50
2014,06,26,12,23,22.40
2014,06,26,12,24,22.40
2014,06,26,12,25,22.30
2014,06,26,12,26,22.40
2014,06,26,12,27,22.40
2014,06,26,12,28,22.30
2014,06,26,12,29,22.30
2014,06,26,12,30,22.40
2014,06,26,12,31,22.40
2014,06,26,12,32,22.30
2014,06,26,12,33,22.20
2014,06,26,12,34,22.00
2014,06,26,12,35,21.90
2014,06,26,12,36,21.90
2014,06,26,12,37,21.90
2014,06,26,12,38,21.80
2014,06,26,12,39,21.90
2014,06,26,12,40,21.80
2014,06,26,12,41,21.70
2014,06,26,12,42,21.60
2014,06,26,12,43,21.40
2014,06,26,12,44,21.30
2014,06,26,12,45,21.20
2014,06,26,12,46,21.10
2014,06,26,12,47,21.00
2014,06,26,12,48,21.00
2014,06,26,12,49,20.90
2014,06,26,12,50,20.80
2014,06,26,12,51,20.70
2014,06,26,12,52,20.70
2014,06,26,12,53,20.70
2014,06,26,12,54,20.80
2014,06,26,12,55,20.80
2014,06,26,12,56,20.80
2014,06,26,12,57,20.70
2014,06,26,12,58,20.70
2014,06,26,12,59,20.60
2014,06,26,13,00,20.60
2014,06,26,13,01,20.60
2014,06,26,13,02,20.70
2014,06,26,13,03,20.80
2014,06,26,13,04,20.90
2014,06,26,13,05,21.00
2014,06,26,13,06,21.10
2014,06,26,13,07,21.10
2014,06,26,13,08,21.10
2014,06,26,13,09,21.00
2014,06,26,13,10,21.00
2014,06,26,13,11,20.90
2014,06,26,13,12,20.90
2014,06,26,13,13,20.90
2014,06,26,13,14,20.90
2014,06,26,13,15,21.00
2014,06,26,13,16,21.00
2014,06,26,13,17,21.10
2014,06,26,13,18,21.10
2014,06,26,13,19,21.10
2014,06,26,13,20,21.10
2014,06,26,13,21,21.10
2014,06,26,13,22,21.10
2014,06,26,13,23,21.20
2014,06,26,13,24,21.20
2014,06,26,13,25,21.20
2014,06,26,13,26,21.20
2014,06,26,13,27,21.30
2014,06,26,13,28,21.30
2014,06,26,13,29,21.30
2014,06,26,13,30,21.40
2014,06,26,13,31,21.40
2014,06,26,13,32,21.50
2014,06,26,13,33,21.50
2014,06,26,13,34,21.60
2014,06,26,13,35,21.70
2014,06,26,13,36,21.80
2014,06,26,13,37,21.80
2014,06,26,13,38,21.90
2014,06,26,13,39,22.00
2014,06,26,13,40,22.00
2014,06,26,13,41,22.10
2014,06,26,13,42,22.10
2014,06,26,13,43,22.10
2014,06,26,13,44,22.10
2014,06,26,13,45,22.00
2014,06,26,13,46,21.90
2014,06,26,13,47,21.80
2014,06,26,13,48,21.70
2014,06,26,13,49,21.70
2014,06,26,13,50,21.70
2014,06,26,13,51,21.70
2014,06,26,13,52,21.80
2014,06,26,13,53,21.70
2014,06,26,13,54,21.70
2014,06,26,13,55,21.70
2014,06,26,13,56,21.70
2014,06,26,13,57,21.80
2014,06,26,13,58,21.80
2014,06,26,13,59,21.80
2014,06,26,14,00,21.80
2014,06,26,14,01,21.80
2014,06,26,14,02,21.80
2014,06,26,14,03,21.80
2014,06,26,14,04,21.90
2014,06,26,14,05,21.90
2014,06,26,14,06,22.00
2014,06,26,14,07,22.10
2014,06,26,14,08,22.10
2014,06,26,14,09,22.10
2014,06,26,14,10,22.10
2014,06,26,14,11,22.10
2014,06,26,14,12,22.10
2014,06,26,14,13,22.10
2014,06,26,14,14,22.20
2014,06,26,14,15,22.20
2014,06,26,14,16,22.10
2014,06,26,14,17,22.10
2014,06,26,14,18,22.00
2014,06,26,14,19,22.00
2014,06,26,14,20,22.00
2014,06,26,14,21,22.10
2014,06,26,14,22,22.10
2014,06,26,14,23,22.20
2014,06,26,14,24,22.20
2014,06,26,14,25,22.20
2014,06,26,14,26,22.20
2014,06,26,14,27,22.20
2014,06,26,14,28,22.20
2014,06,26,14,29,22.10
2014,06,26,14,30,22.10
2014,06,26,14,31,22.10
2014,06,26,14,32,22.10
2014,06,26,14,33,22.00
2014,06,26,14,34,22.00
2014,06,26,14,35,21.90
2014,06,26,14,36,21.90
2014,06,26,14,37,21.90
2014,06,26,14,38,22.00
2014,06,26,14,39,22.10
2014,06,26,14,40,22.10
2014,06,26,14,41,22.10
2014,06,26,14,42,22.20
2014,06,26,14,43,22.20
2014,06,26,14,44,22.20
2014,06,26,14,45,22.30
2014,06,26,14,46,22.30
2014,06,26,14,47,22.30
2014,06,26,14,48,22.20
2014,06,26,14,49,22.30
2014,06,26,14,50,22.30
2014,06,26,14,51,22.30
2014,06,26,14,52,22.20
2014,06,26,14,53,22.10
2014,06,26,14,54,21.90
2014,06,26,14,55,21.80
2014,06,26,14,56,21.80
2014,06,26,14,57,21.80
2014,06,26,14,58,21.80
2014,06,26,14,59,21.70
2014,06,26,15,00,21.60
2014,06,26,15,01,21.40
2014,06,26,15,02,21.30
2014,06,26,15,03,21.30
2014,06,26,15,04,21.20
2014,06,26,15,05,21.20
2014,06,26,15,06,21.20
2014,06,26,15,07,21.10
2014,06,26,15,08,21.10
2014,06,26,15,09,21.00
2014,06,26,15,10,21.00
2014,06,26,15,11,21.00
2014,06,26,15,12,21.00
2014,06,26,15,13,20.90
2014,06,26,15,14,20.90
2014,06,26,15,15,20.90
2014,06,26,15,16,21.00
2014,06,26,15,17,21.00
2014,06,26,15,18,21.10
2014,06,26,15,19,21.10
2014,06,26,15,20,21.10
2014,06,26,15,21,21.20
2014,06,26,15,22,21.20
2014,06,26,15,23,21.30
2014,06,26,15,24,21.30
2014,06,26,15,25,21.40
2014,06,26,15,26,21.50
2014,06,26,15,27,21.60
2014,06,26,15,28,21.60
2014,06,26,15,29,21.60
2014,06,26,15,30,21.70
2014,06,26,15,31,21.70
2014,06,26,15,32,21.70
2014,06,26,15,33,21.70
2014,06,26,15,34,21.70
2014,06,26,15,35,21.70
2014,06,26,15,36,21.70
2014,06,26,15,37,21.70
2014,06,26,15,38,21.80
2014,06,26,15,39,21.80
2014,06,26,15,40,21.80
2014,06,26,15,41,21.80
2014,06,26,15,42,21.80
2014,06,26,15,43,21.80
2014,06,26,15,44,21.90
2014,06,26,15,45,21.90
2014,06,26,15,46,21.80
2014,06,26,15,47,21.70
2014,06,26,15,48,21.60
2014,06,26,15,49,21.60
2014,06,26,15,50,21.60
2014,06,26,15,51,21.50
2014,06,26,15,52,21.50
2014,06,26,15,53,21.50
2014,06,26,15,54,21.70
2014,06,26,15,55,21.80
2014,06,26,15,56,21.90
2014,06,26,15,57,22.00
2014,06,26,15,58,22.10
2014,06,26,15,59,22.20
2014,06,26,16,00,22.30
2014,06,26,16,01,22.40
2014,06,26,16,02,22.50
2014,06,26,16,03,22.60
2014,06,26,16,04,22.50
2014,06,26,16,05,22.50
2014,06,26,16,06,22.50
2014,06,26,16,07,22.60
2014,06,26,16,08,22.60
2014,06,26,16,09,22.50
2014,06,26,16,10,22.50
2014,06,26,16,11,22.40
2014,06,26,16,12,22.40
2014,06,26,16,13,22.40
2014,06,26,16,14,22.50
2014,06,26,16,15,22.60
2014,06,26,16,16,22.60
2014,06,26,16,17,22.60
2014,06,26,16,18,22.60
2014,06,26,16,19,22.60
2014,06,26,16,20,22.70
2014,06,26,16,21,22.70
2014,06,26,16,22,22.80
2014,06,26,16,23,22.80
2014,06,26,16,24,22.80
2014,06,26,16,25,22.80
2014,06,26,16,26,22.70
2014,06,26,16,27,22.70
2014,06,26,16,28,22.70
2014,06,26,16,29,22.70
2014,06,26,16,30,22.70
2014,06,26,16,31,22.70
2014,06,26,16,32,22.60
2014,06,26,16,33,22.50
2014,06,26,16,34,22.40
2014,06,26,16,35,22.30
2014,06,26,16,36,22.30
2014,06,26,16,37,22.30
2014,06,26,16,38,22.30
2014,06,26,16,39,22.20
2014,06,26,16,40,22.20
2014,06,26,16,41,22.10
2014,06,26,16,42,22.00
2014,06,26,16,43,21.90
2014,06,26,16,44,21.90
2014,06,26,16,45,21.80
2014,06,26,16,46,21.80
2014,06,26,16,47,21.80
2014,06,26,16,48,21.80
2014,06,26,16,49,21.80
2014,06,26,16,50,21.80
2014,06,26,16,51,21.70
2014,06,26,16,52,21.70
2014,06,26,16,53,21.60
2014,06,26,16,54,21.60
2014,06,26,16,55,21.50
2014,06,26,16,56,21.40
2014,06,26,16,57,21.30
2014,06,26,16,58,21.20
2014,06,26,16,59,21.10
2014,06,26,17,00,21.00
2014,06,26,17,01,21.00
2014,06,26,17,02,20.90
2014,06,26,17,03,20.90
2014,06,26,17,04,20.90
2014,06,26,17,05,20.90
2014,06,26,17,06,20.90
2014,06,26,17,07,20.90
2014,06,26,17,08,20.90
2014,06,26,17,09,20.80
2014,06,26,17,10,20.80
2014,06,26,17,11,20.70
2014,06,26,17,12,20.70
2014,06,26,17,13,20.70
2014,06,26,17,14,20.70
2014,06,26,17,15,20.70
2014,06,26,17,16,20.60
2014,06,26,17,17,20.60
2014,06,26,17,18,20.60
2014,06,26,17,19,20.60